EW7244 Weather Reports


time (UTC)temp
C
wind
direction
speed
KPH
gust
KPH
rain 1hr
cm
rain 24hr
cm
rain mn
cm
humidity
%
barometer
mb
20260906133051 28 134 0.0 0.0 0.00 0.00 0.00 47 1016.8
20260906131557 28 125 0.0 0.0 0.00 0.00 0.00 47 1016.8
20260906130059 28 148 0.0 0.0 0.00 0.00 0.00 46 1017.0
20260906124547 28 100 0.0 0.0 0.00 0.00 0.00 46 1017.1
20260906123044 28 146 0.0 0.0 0.00 0.00 0.00 48 1017.1
20260906121542 28 232 0.0 0.0 0.00 0.00 0.00 48 1017.2
20260906120051 28 138 0.0 0.0 0.00 0.00 0.00 48 1017.1
20260906114550 28 162 0.0 0.0 0.00 0.00 0.00 51 1017.2
20260906113046 28 79 0.0 0.0 0.00 0.00 0.00 50 1017.3
20260906111545 28 16 0.0 0.0 0.00 0.00 0.00 51 1017.3
20260906110112 27 33 0.0 0.0 0.00 0.00 0.00 53 1017.3
20260906104608 27 109 0.0 0.0 0.00 0.00 0.00 52 1017.4
20260906103048 26 117 0.0 0.0 0.00 0.00 0.00 53 1017.6
20260906101541 26 212 0.0 0.0 0.00 0.00 0.00 55 1017.7
20260906100056 25 96 0.0 0.0 0.00 0.00 0.00 57 1018.0
20260906094600 25 86 0.0 0.0 0.00 0.00 0.00 58 1018.2
20260906093033 25 126 0.0 0.0 0.00 0.00 0.00 59 1018.4
20260906091525 24 63 0.0 0.0 0.00 0.00 0.00 61 1018.5
20260906090002 23 84 0.0 0.0 0.00 0.00 0.00 62 1018.6
20260906084551 23 290 0.0 0.0 0.00 0.00 0.00 65 1018.7
20260906083047 22 106 0.0 0.0 0.00 0.00 0.00 67 1018.6
20260906081538 22 119 0.0 0.0 0.00 0.00 0.00 70 1018.7
20260906080046 21 133 0.0 0.0 0.00 0.00 0.00 71 1018.8
20260906074556 21 144 0.0 0.0 0.00 0.00 0.00 73 1018.8
20260906073043 21 146 0.0 0.0 0.00 0.00 0.00 74 1018.7
20260906071542 21 84 0.0 0.0 0.00 0.00 0.00 76 1018.7
20260906070053 21 111 0.0 0.0 0.00 0.00 0.00 76 1018.7
20260906064548 20 123 0.0 0.0 0.00 0.00 0.00 77 1018.7
20260906063044 20 123 0.0 0.0 0.00 0.00 0.00 78 1018.6
20260906061546 20 240 0.0 0.0 0.00 0.00 0.00 80 1018.5
20260906060103 20 241 0.0 0.0 0.00 0.00 0.00 82 1018.4
20260906054546 19 241 0.0 0.0 0.00 0.00 0.00 84 1018.3
20260906053042 18 241 0.0 0.0 0.00 0.00 0.00 85 1018.0
20260906051558 17 237 0.0 0.0 0.00 0.00 0.00 86 1017.7
20260906050042 17 237 0.0 0.0 0.00 0.00 0.00 85 1017.6
20260906044543 17 237 0.0 0.0 0.00 0.00 0.00 86 1017.5
20260906043038 17 237 0.0 0.0 0.00 0.00 0.00 86 1017.4
20260906041529 18 237 0.0 0.0 0.00 0.00 0.00 83 1017.4
20260906040010 18 237 0.0 0.0 0.00 0.00 0.00 82 1017.3
20260906034605 18 237 0.0 0.0 0.00 0.00 0.00 82 1017.0
20260906033001 18 237 0.0 0.0 0.00 0.00 0.00 83 1016.9
20260906031556 18 237 0.0 0.0 0.00 0.00 0.00 83 1016.8
20260906030046 19 237 0.0 0.0 0.00 0.00 0.00 81 1016.8
20260906024540 19 237 0.0 0.0 0.00 0.00 0.00 81 1016.7
20260906023053 19 237 0.0 0.0 0.00 0.00 0.00 81 1016.7
20260906021557 19 237 0.0 0.0 0.00 0.00 0.00 82 1016.7
20260906020049 19 237 0.0 0.0 0.00 0.00 0.00 81 1016.6
20260906014549 20 237 0.0 0.0 0.00 0.00 0.00 81 1016.4
20260906013041 20 237 0.0 0.0 0.00 0.00 0.00 80 1016.4
20260906011539 20 237 0.0 0.0 0.00 0.00 0.00 81 1016.3
20260906010128 20 237 0.0 0.0 0.00 0.00 0.00 80 1016.3
20260906004556 20 236 0.0 0.0 0.00 0.00 0.00 80 1016.2
20260906003044 20 236 0.0 0.0 0.00 0.00 0.00 79 1016.2
20260906001555 21 236 0.0 0.0 0.00 0.00 0.00 78 1016.2
20260906000052 21 236 0.0 0.0 0.00 0.00 0.00 78 1016.1
20260905234544 21 236 0.0 0.0 0.00 0.00 0.00 78 1016.0
20260905233042 21 236 0.0 0.0 0.00 0.00 0.00 78 1016.0
20260905231543 21 236 0.0 0.0 0.00 0.00 0.00 78 1015.8
20260905230023 21 236 0.0 0.0 0.00 0.00 0.00 79 1015.8
20260905224511 21 236 0.0 0.0 0.00 0.00 0.00 78 1015.7
20260905223056 21 236 0.0 0.0 0.00 0.00 0.00 76 1015.5
20260905221547 21 236 0.0 0.0 0.00 0.00 0.00 76 1015.4
20260905220100 22 236 0.0 0.0 0.00 0.00 0.00 77 1015.3
20260905214553 21 236 0.0 0.0 0.00 0.00 0.00 76 1015.2
20260905213050 21 236 0.0 0.0 0.00 0.00 0.00 78 1015.0
20260905211546 22 236 0.0 0.0 0.00 0.00 0.00 76 1015.0
20260905210116 22 236 0.0 0.0 0.00 0.00 0.00 76 1014.8
20260905204601 22 236 0.0 0.0 0.00 0.00 0.00 75 1014.8
20260905203050 22 236 0.0 0.0 0.00 0.00 0.00 75 1014.8
20260905201545 22 236 0.0 0.0 0.00 0.00 0.00 76 1014.6
20260905200107 22 236 0.0 0.0 0.00 0.00 0.00 76 1014.4
20260905194556 22 236 0.0 0.0 0.00 0.00 0.00 75 1014.2
20260905193048 22 238 0.0 0.0 0.00 0.00 0.00 74 1014.0
20260905191541 22 240 0.0 0.0 0.00 0.00 0.00 74 1013.7
20260905190059 23 240 0.0 0.0 0.00 0.00 0.00 73 1013.6
20260905184600 23 240 0.0 0.0 0.00 0.00 0.00 72 1013.4
20260905183044 23 240 0.0 0.0 0.00 0.00 0.00 72 1013.2
20260905181545 23 240 0.0 0.0 0.00 0.00 0.00 72 1012.9
20260905180043 23 241 0.0 0.0 0.00 0.00 0.00 72 1012.7
20260905174533 24 240 0.0 0.0 0.00 0.00 0.00 69 1012.4
20260905173016 25 241 0.0 0.0 0.00 0.00 0.00 68 1012.2
20260905171601 25 241 0.0 0.0 0.00 0.00 0.00 68 1012.0
20260905170050 25 242 0.0 0.0 0.00 0.00 0.00 67 1011.8
20260905164545 26 242 0.0 0.0 0.00 0.00 0.00 65 1011.7
20260905163054 26 242 0.0 0.0 0.00 0.00 0.00 64 1011.5
20260905161554 27 242 0.0 0.0 0.00 0.00 0.00 63 1011.5
20260905160048 27 242 0.0 0.0 0.00 0.00 0.00 60 1011.3
20260905154541 28 94 0.0 0.0 0.00 0.00 0.00 59 1011.2
20260905153058 29 69 0.0 0.0 0.00 0.00 0.00 55 1011.1
20260905151601 30 57 0.0 0.0 0.00 0.00 0.00 49 1011.2
20260905150055 31 168 0.0 0.0 0.00 0.00 0.00 47 1011.0
20260905144554 30 89 0.0 0.0 0.00 0.00 0.00 48 1010.9
20260905143044 30 96 0.0 0.0 0.00 0.00 0.00 49 1011.0
20260905141540 30 175 0.0 0.0 0.00 0.00 0.00 48 1011.0
20260905140057 30 161 0.0 0.0 0.00 0.00 0.00 48 1011.1
20260905134550 30 65 0.0 0.0 0.00 0.00 0.00 48 1011.2